Location: ?????????
(38.0736°N, 23.2119°E)
Time: 12:19:18
(UTC+00:00)

Cosmos 2151 Rocket - Pass Details

Date: 18 April 2024
Orbit: 616 x 638 km, 82.5° (Epoch: 18 May)

Event Time Altitude Azimuth Distance (km) Brightness Sun altitude
Exits shadow 18:18:15 12° 163° (SSE) 1,866 5.6 -14.0°
Maximum altitude 18:22:07 44° 92° (E) 861 3.9 -14.7°
Drops below altitude 10° 18:26:20 10° 21° (NNE) 2,000 6.3 -15.4°
Sets 18:28:38 0° 15° (NNE) 2,915 7.2 -15.8°
